Location: ????????
(54.8751°N, 38.5756°E)
Time: 03:48:08
(UTC+00:00)

SL-16 R/B - Pass Details

Date: 14 April 2024
Orbit: 841 x 845 km, 71.0° (Epoch: 23 May)

Event Time Altitude Azimuth Distance (km) Brightness Sun altitude
Exits shadow 00:35:48 10° 273° (W) 2,465 4.2 -14.4°
Maximum altitude 00:40:28 26° 329° (NNW) 1,619 3.8 -13.9°
Drops below altitude 10° 00:45:11 10° 25° (NNE) 2,479 5.7 -13.4°
Sets 00:48:04 0° 38° (NE) 3,417 7.1 -13.0°
